www.pogodaiklimat.ru

Погода и климат >> Архив погоды >> Индия >> Guwahati


ПОГОДА в Guwahati

  • Прогноз погоды в Guwahati
  • Монитор погоды в Guwahati
  • Климат города

АРХИВ ПОГОДЫ в Guwahati

Время (UTC), дата Ветер
(напр.,м/с)
 
Видим.   Явления Облачность Т
(С)
Тd
(С)
f
(%)
Тe
(С)
Тes
(С)
Комфортность P
(гПа)
Po
(гПа)
Тmin
(С)
Tmax
(С)
R
(мм)
R24
(мм)
S
(см)
00 19.02 штиль 0 2000 м дымка 1/1 600 м
[Sc]
+13.6 +12.5 93 +13 +13 1013.9 1014.0
03 19.02 штиль 0 2000 м мгла ясно +19.0 +13.8 72 +20 +29 1015.6 1016.0 +12.9
06 19.02 В 2 2000 м мгла ясно +27.0 +14.8 47 1013.7 1013.8
09 19.02 З 4 4000 м мгла ясно +28.8 +12.5 37 +30 +35 жарко 1011.2 1011.0
12 19.02 штиль 0 2000 м мгла ясно +25.0 +17.0 61 +29 +29 душно 1011.2 1011.0 +29.5
15 19.02 штиль 0 2000 м дымка 4/1 540 м
[Sc Ac trans]
+18.0 +14.2 78 +18 +18 1013.7 1014.0
18 19.02 штиль 0 2000 м дымка 4/1 540 м
[Sc Ac trans]
+16.4 +13.6 84 +16 +16 1014.6 1015.0
21 19.02 штиль 0 2000 м дымка 4/1 540 м
[Sc Ac trans]
+15.0 +12.8 87 +15 +15 1014.2 1014.0
00 20.02 штиль 0 2000 м дымка 4/1 540 м
[Sc Ac trans]
+14.0 +12.2 89 +14 +14 1015.1 1015.0
03 20.02 штиль 0 1000 м дымка ясно +19.4 +12.7 65 +21 +30 комфорт 1016.8 1017.0 +13.0
06 20.02 Ю 3 2000 м мгла ясно +26.0 +15.9 54 +29 +42 душно 1014.8 1015.0
09 20.02 С 2 2000 м мгла 5/3 540 м
[Sc Ac trans]
+28.0 +12.7 39 +29 +33 жарко 1011.0 1011.0
12 20.02 С 2 2000 м мгла 3/3 600 м
[Sc]
+24.4 +14.7 55 +27 +27 жарко 1011.5 1012.0 +28.6
15 20.02 Ю 1 2000 м мгла 3/1 600 м
[Sc Ac trans]
+19.2 +13.6 70 +22 +22 комфорт 1012.7 1013.0
18 20.02 штиль 0 2000 м дымка 4/1 600 м
[Sc Ac trans]
+16.8 +13.6 81 +17 +17 1013.1 1013.0
00 21.02 штиль 0 2000 м дымка 1/1 600 м
[Sc]
+13.4 +12.3 93 +13 +13 1012.0 1012.0
03 21.02 штиль 0 2000 м дымка {туман} ясно +18.4 +13.9 75 +19 +28 1013.7 1014.0 +12.5
06 21.02 С 3 2000 м мгла ясно +26.8 +15.7 51 +30 +42 душно 1012.3 1012.0
09 21.02 З 3 4000 м мгла ясно +30.4 +12.0 32 +31 +36 жарко 1009.4 1009.0
12 21.02 З 1 2000 м мгла 3/1 540 м
[Sc Ci fib]
+25.4 +15.1 53 +28 +28 жарко 1009.3 1009.0 +31.0
15 21.02 Ю 2 2000 м дымка 1/1 540 м
[Sc]
+18.8 +14.7 77 +21 +21 комфорт 1011.2 1011.0
18 21.02 штиль 0 2000 м дымка 1/1 540 м
[Sc]
+15.8 +13.7 87 +16 +16 1011.8 1012.0
21 21.02 штиль 0 1000 м дымка 1/1 540 м
[Sc]
+14.6 +13.5 93 +14 +14 1011.0 1011.0
00 22.02 штиль 0 1000 м дымка 1/1 540 м
[Sc]
+13.0 +11.9 93 +12 +12 1011.6 1012.0
03 22.02 штиль 0 2000 м мгла ясно +17.6 +13.0 74 +18 +27 1014.0 1014.0 +12.0
06 22.02 СВ 3 2000 м мгла ясно +27.6 +14.7 45 +30 +42 жарко 1011.8 1012.0
09 22.02 З 2 2000 м мгла ясно +29.8 +10.6 30 +30 +36 жарко 1008.4 1008.0
12 22.02 З 1 2000 м мгла 4/1 600 м
[Sc Ac trans]
+26.0 +14.7 50 +29 +29 душно 1008.6 1009.0 +31.2
15 22.02 Ю 1 2000 м дымка 3/3 600 м
[Sc]
+19.0 +14.5 75 +21 +21 комфорт 1011.2 1011.0
18 22.02 штиль 0 2000 м дымка 3/3 600 м
[Sc]
+18.4 +14.6 79 +19 +19 1011.9 1012.0
21 22.02 штиль 0 2000 м дымка 3/3 600 м
[Sc]
+16.8 +15.4 91 +17 +17 1011.7 1012.0
00 23.02 штиль 0 2000 м дымка 5/3 540 м
[Sc Ac trans]
+15.6 +13.1 85 1013.0 1013.2
03 23.02 штиль 0 2000 м мгла 6/3 600 м
[Sc Ac trans]
+20.2 +15.5 74 +23 +28 комфорт 1014.0 1014.0 +14.0
06 23.02 С 2 2000 м мгла ясно +26.4 +14.0 46 +29 +43 жарко 1013.1 1013.0
09 23.02 СВ 3 2000 м мгла ясно +27.4 +20.1 64 +34 +39 очень
душно
1010.0 1010.0
12 23.02 СВ 5 1000 м пыльный позёмок ясно +23.8 +15.5 60 +27 +27 жарко 1010.8 1011.0 +28.0
15 23.02 СВ 2 1000 м пыль 6/3 540 м
[Sc Ac trans]
+21.6 +15.6 69 +25 +25 комфорт 1013.5 1014.0
18 23.02 СВ 2 1000 м пыль 6/3 540 м
[Sc Ac trans]
+19.4 +15.0 76 +22 +22 комфорт 1014.8 1015.0
21 23.02 СВ 2 1000 м пыль 6/3 540 м
[Sc Ac trans]
+17.0 +14.2 84 +17 +17 1014.3 1014.0
00 24.02 С 2 1000 м дымка {туман} 5/3 540 м
[Sc Ac trans]
+17.0 +15.3 90 +17 +17 1015.1 1015.0
03 24.02 С 3 1000 м дымка 1/1 540 м
[Sc]
+19.6 +16.6 83 +22 +28 комфорт 1017.9 1018.0 +15.4
06 24.02 Ю 4 2000 м мгла ясно +26.2 +19.4 66 +32 +41 очень
душно
1016.2 1016.0
09 24.02 СВ 4 2000 м мгла 3/3 540 м
[Sc]
+27.0 +15.6 50 +30 +33 душно 1013.5 1014.0
12 24.02 СВ 3 2000 м мгла 3/1 540 м
[Sc Ac trans]
+24.8 +17.1 62 +29 +29 душно 1013.7 1014.0 +27.5
15 24.02 штиль 0 2000 м мгла 5/3 600 м
[Sc Ac trans]
+22.0 +17.1 74 +26 +26 душно 1015.3 1015.0
18 24.02 С 2 2000 м дымка {морось} 5/3 540 м
[Sc Ac trans]
+20.8 +16.9 78 +25 +25 комфорт 1015.9 1016.0 0.0
21 24.02 СВ 1 2000 м дымка 5/3
[Sc Ac trans]
+18.4 +16.0 86 +20 +20 1015.0 1015.0 0.0
00 25.02 штиль 0 2000 м дымка 4/1 600 м
[Sc Ac trans]
+16.0 +15.6 97 +16 +16 1015.0 1015.0 0.0
03 25.02 штиль 0 2000 м дымка ясно +20.0 +17.4 85 +23 +33 комфорт 1017.0 1017.0 +14.4 0.0
06 25.02 С 4 2000 м мгла 1/1 600 м
[Sc]
+27.2 +20.2 66 +34 +42 очень
душно
1015.1 1015.0
09 25.02 С 4 2000 м мгла 4/1 600 м
[Sc Ci fib]
+28.2 +16.7 50 +32 +36 душно 1011.5 1012.0
12 25.02 С 3 2000 м мгла 8/4 540 м
[Sc diur, vesp Ac trans]
+25.8 +16.8 58 +30 +30 душно 1011.3 1011.0 +28.8
15 25.02 С 3 2000 м мгла {морось} 8/4 540 м
[Sc Ac trans]
+23.0 +16.8 68 +28 +28 душно 1013.0 1013.0 0.0
18 25.02 С 2 2000 м дымка {морось} 6/3 540 м
[Sc Ac trans]
+21.2 +17.0 77 +25 +25 комфорт 1012.9 1013.0 0.0

 

Местоположение метеостанции Guwahati (Assam, Индия): широта 26.10 долгота 91.58 высота над уровнем моря 54 м.

В архиве по умолчанию представлена погода в Guwahati за последнюю неделю. Архивные данные за месяц целиком и за предыдущие месяцы, начиная с января 2011 года, Вы можете получить, выбрав интересующий диапазон дат из раскрывающегося списка и нажав кнопку "Ввод!".

Внимание! Время в таблицах - всемирное. Для получения местного времени необходимо прибавить поправку, которая в Guwahati равна 5.5 ч.

Смотрите также архив погоды в соседних городах и на ближайших метеорологических станциях:

Погода в Rangia (Assam, Индия) (37 км)
Погода в Shillong Airport (Meghalaya, Индия) (59 км)
Погода в Shillong (Meghalaya, Индия) (66 км)
Погода в Tangla (Assam, Индия) (70 км)
Погода в Chaparmukh (Assam, Индия) (95 км)
Погода в Goalpara (Assam, Индия) (95 км)
Погода в Cherrapunji (Meghalaya, Индия) (96 км)
Погода в Mazbat (Assam, Индия) (105 км)
Погода в Tezpur (Assam, Индия) (133 км)
Погода в Sylhet (Бангладеш) (137 км)

Пояснения к столбцам:

Ветер - указаны скорость ветра в м/с - средняя за 10 мин, порывы в срок и между сроками (в фигурных скобках) и направление, откуда дует ветер: С - северный, СВ - северо-восточный, В - восточный, ЮВ - юго-восточный, Ю - южный, ЮЗ - юго-западный, З - западный, СЗ - северо-западный.
Видимость - горизонтальная дальность видимости в метрах или километрах. При видимости от 1 до 10 км при отсутствии осадков обычно наблюдается дымка, при ухудшении видимости до 1 км и менее - туман. В сухую погоду видимость может ухудшаться дымом, пылью или мглою.
Явления - указаны атмосферные явления, наблюдавшиеся в срок или в последний час перед сроком; фигурными скобками обозначены явления, наблюдавшиеся между сроками (за 1-3 часа до срока); квадратными скобками обозначены град или гололедные отложения с указанием их диаметра в мм.
Облачность - указаны через наклонную черту общая и нижняя облачность в баллах и высота нижней границы облаков в метрах; квадратными скобками обозначены формы облаков: Ci - перистые, Cs - перисто-слоистые, Cc - перисто-кучевые, Ac - высококучевые, As - высокослоистые, Sc - слоисто-кучевые, Ns - слоисто-дождевые, Cu - кучевые, Cb - кучево-дождевые. Подробнее классификацию облаков см. в Атласе облаков (PDF).
T - Температура воздуха - температура, измеренная на высоте 2 м над землей.
Td - Температура точки росы - температура, при понижении до которой содержащийся в воздухе водяной пар достигнет насыщения.
f - Относительная влажность воздуха - влажноcть воздуха, измеренная на высоте 2 м над землей.
Te - Эффективная температура - температура, которую ощущает одетый по сезону человек в тени. Характеристика душности погоды. При расчете учитывается влияние влажности воздуха и скорости ветра на теплоощущения человека.
Tes - Эффективная температура на солнце - температура, которую ощущает человек, с поправкой на солнечный нагрев. Характеристика знойности погоды. Зависит от высоты солнца над горизонтом, облачности и скорости ветра. Ночью, в пасмурную погоду, а также при ветре 12 м/с и более поправка равна нулю.
P - Атмосферное давление - приведенное к уровню моря атмосферное давление.
Po - Атмосферное давление - измеренное на уровне метеостанции атмосферное давление.
Tmin - Минимальная температура - минимум температуры воздуха на высоте 2 м над землей.
Tmax - Максимальная температура - максимум температуры воздуха на высоте 2 м над землей.
R - Количество осадков - Количество выпавших осадков за период времени, мм. При наведении курсора мыши на число - период времени, за который выпало указанное количество осадков.
R24 - Количество осадков - Количество выпавших осадков за 24 часа, мм.
S - Снежный покров - Высота снежного покрова, см. При наведении курсора мыши на число - состояние снежного покрова и степень покрытия местности в баллах.